This is the latest recevied weather packets stored in our database for station/object K5NCO. If no packets are shown the sender has not sent any weather packets the latest 10 day(s).
| Time | Temp. | Humidity | Pressure | Rain* | Wind** | Luminosity | Snow |
|---|---|---|---|---|---|---|---|
| 1777930136 | 26.67° C | 63% | 1011.4 hPa | 0 mm | - | 188 W/m² | - |
| 1777929832 | 26.67° C | 62% | 1011.6 hPa | 0 mm | - | 194 W/m² | - |
| 1777929530 | 26.67° C | 62% | 1011.6 hPa | 0 mm | - | 516 W/m² | - |
| 1777929226 | 26.67° C | 62% | 1011.8 hPa | 0 mm | - | 548 W/m² | - |
| 1777928924 | 26.67° C | 62% | 1011.9 hPa | 0 mm | - | 480 W/m² | - |
| 1777928620 | 26.67° C | 63% | 1011.9 hPa | 0 mm | - | 581 W/m² | - |
| 1777928317 | 27.22° C | 62% | 1012.3 hPa | 0 mm | - | 585 W/m² | - |
| 1777928015 | 26.67° C | 62% | 1012.2 hPa | 0 mm | - | 605 W/m² | - |
| 1777927713 | 26.67° C | 61% | 1012.3 hPa | 0 mm | - | 443 W/m² | - |
| 1777927411 | 26.67° C | 62% | 1012.3 hPa | 0 mm | - | 424 W/m² | - |
| 1777927110 | 26.67° C | 61% | 1012.3 hPa | 0 mm | - | 340 W/m² | - |
| 1777926807 | 26.67° C | 61% | 1012.2 hPa | 0 mm | - | 575 W/m² | - |
| 1777926502 | 26.11° C | 61% | 1012.6 hPa | 0 mm | - | 524 W/m² | - |
| 1777926200 | 26.67° C | 62% | 1012.7 hPa | 0 mm | - | 326 W/m² | - |
| 1777925897 | 26.67° C | 62% | 1012.7 hPa | 0 mm | - | 419 W/m² | - |
| 1777925594 | 26.67° C | 60% | 1012.8 hPa | 0 mm | - | 644 W/m² | - |
| 1777925292 | 26.67° C | 62% | 1012.9 hPa | 0 mm | - | 588 W/m² | - |
| 1777924988 | 26.11° C | 62% | 1013 hPa | 0 mm | - | 502 W/m² | - |
| 1777924684 | 26.67° C | 63% | 1013.1 hPa | 0 mm | - | 606 W/m² | - |
| 1777924380 | 26.67° C | 61% | 1013.1 hPa | 0 mm | - | 646 W/m² | - |
| 1777924077 | 26.67° C | 61% | 1013.4 hPa | 0 mm | - | 750 W/m² | - |
| 1777923773 | 26.11° C | 62% | 1013.4 hPa | 0 mm | - | 783 W/m² | - |
| 1777923469 | 26.11° C | 62% | 1013.7 hPa | 0 mm | - | 586 W/m² | - |
| 1777923167 | 26.11° C | 63% | 1013.6 hPa | 0 mm | - | 823 W/m² | - |
| 1777922865 | 25.56° C | 63% | 1013.6 hPa | 0 mm | - | 371 W/m² | - |
* Rain latest hour (hover to see other rain measurements)
** Current wind speed in m/s (hover to see current wind gust speed)